Salem, OR

1:01 AM PST on January 23, 2018 (GMT -0800)
McNary

Weather History for KSLE - April, 2012

Change the Weather History Date:

Sunday, April 29, 2012

  Actual Average Record
Temperature  
Mean Temperature 56 °F 53 °F  
Max Temperature 68 °F 64 °F 88 °F (1957)
Min Temperature 43 °F 41 °F 28 °F (1952)
Degree Days  
Heating Degree Days 9 13  
Month to date heating degree days 382 428  
Since 1 July heating degree days 4111 4231  
Cooling Degree Days 0 0  
Month to date cooling degree days 2 0  
Year to date cooling degree days 2 0  
Growing Degree Days 6 (Base 50)    
Moisture  
Dew Point 46 °F    
Average Humidity 75    
Maximum Humidity 100    
Minimum Humidity 49    
Precipitation  
Precipitation 0.00 in 0.07 in 0.90 in (1896)
Month to date precipitation 2.90 2.74  
Year to date precipitation 27.34 17.25  
Snow  
Snow 0.00 in - - ()
Month to date snowfall 0.0  
Snow Depth 0.00 in    
Sea Level Pressure  
Sea Level Pressure 30.08 in    
Wind  
Wind Speed 3 mph (SW)    
Max Wind Speed 9 mph    
Max Gust Speed 13 mph    
Visibility 9 miles    
Events Fog , Rain    
T = Trace of Precipitation, MM = Missing Value Source: NWS Daily Summary

Daily Weather History Graph

Daily Weather History Graph

Search for Another Location

Airport or City:

Trip Planner

Search our weather history database for the weather conditions in past years. The results will help you decide how hot, cold, wet, or windy it might be!

Date:

Astronomy

Apr. 29, 2012 Rise Set
Actual Time 6:03 AM PDT 8:15 PM PDT
Civil Twilight 5:31 AM PDT 8:47 PM PDT
Nautical Twilight 4:51 AM PDT 9:27 PM PDT
Astronomical Twilight 4:07 AM PDT 10:12 PM PDT
Moon 12:56 PM PDT (4/29) 2:16 AM PDT (4/29)
Length of Visible Light 15h 16m
Length of Day
14h 12m
First Quarter, 54% of the Moon is Illuminated
Apr 29
First Quarter
May 5
Full
May 12
Last Quarter
May 20
New
May 28
First Quarter

Hourly Weather History & Observations

Time (PDT) Temp. Windchill Dew Point Humidity Pressure Visibility Wind Dir Wind Speed Gust Speed Precip Events Conditions
12:56 AM 48.0 °F - 45.0 °F 89% 30.18 in 10.0 mi Calm Calm - N/A   Clear
1:56 AM 46.9 °F - 45.0 °F 93% 30.17 in 10.0 mi ESE 3.5 mph - N/A   Clear
2:56 AM 44.1 °F - 44.1 °F 100% 30.17 in 10.0 mi Calm Calm - N/A   Clear
3:17 AM 44.6 °F - 42.8 °F 93% 30.16 in 1.8 mi Calm Calm - N/A   Clear
3:24 AM 44.6 °F - 44.6 °F 100% 30.16 in 1.2 mi Calm Calm - N/A   Clear
3:27 AM 44.6 °F - 42.8 °F 93% 30.16 in 2.5 mi Calm Calm - N/A   Clear
3:34 AM 44.6 °F - 42.8 °F 93% 30.16 in 10.0 mi Calm Calm - N/A   Clear
3:56 AM 45.0 °F - 43.0 °F 93% 30.17 in 10.0 mi Calm Calm - N/A   Clear
4:56 AM 45.0 °F - 43.0 °F 93% 30.15 in 10.0 mi Calm Calm - N/A   Mostly Cloudy
5:25 AM 44.6 °F - 42.8 °F 93% 30.15 in 10.0 mi Calm Calm - N/A   Overcast
5:56 AM 45.0 °F 43.5 °F 43.0 °F 93% 30.15 in 10.0 mi SE 3.5 mph - N/A   Overcast
6:16 AM 44.6 °F 43.1 °F 42.8 °F 93% 30.15 in 10.0 mi SE 3.5 mph - N/A   Scattered Clouds
6:45 AM 44.6 °F - 44.6 °F 100% 30.15 in 10.0 mi Calm Calm - N/A   Mostly Cloudy
6:56 AM 46.0 °F - 45.0 °F 96% 30.15 in 10.0 mi Calm Calm - N/A   Overcast
7:15 AM 48.2 °F - 46.4 °F 93% 30.15 in 10.0 mi Calm Calm - N/A   Mostly Cloudy
7:56 AM 50.0 °F - 48.0 °F 93% 30.15 in 10.0 mi Calm Calm - N/A Fog Patches of Fog
8:56 AM 54.0 °F - 48.9 °F 83% 30.15 in 10.0 mi Calm Calm - N/A Fog Patches of Fog
9:56 AM 57.0 °F - 48.0 °F 72% 30.13 in 10.0 mi NE 5.8 mph - N/A   Mostly Cloudy
10:56 AM 60.1 °F - 48.9 °F 67% 30.13 in 10.0 mi NW 5.8 mph - N/A   Mostly Cloudy
11:56 AM 61.0 °F - 46.9 °F 60% 30.10 in 10.0 mi Variable 3.5 mph - N/A   Mostly Cloudy
12:17 PM 60.8 °F - 48.2 °F 63% 30.10 in 10.0 mi NW 6.9 mph - N/A   Mostly Cloudy
12:56 PM 63.0 °F - 48.0 °F 58% 30.08 in 10.0 mi WNW 5.8 mph - N/A   Mostly Cloudy
1:56 PM 63.0 °F - 48.0 °F 58% 30.05 in 10.0 mi SE 4.6 mph - N/A   Mostly Cloudy
2:56 PM 66.0 °F - 48.9 °F 54% 30.03 in 10.0 mi NNW 5.8 mph - N/A   Mostly Cloudy
3:56 PM 68.0 °F - 48.0 °F 49% 30.00 in 10.0 mi Variable 3.5 mph - N/A   Mostly Cloudy
4:56 PM 64.9 °F - 48.0 °F 54% 29.98 in 10.0 mi West 6.9 mph - N/A   Scattered Clouds
5:56 PM 64.0 °F - 46.9 °F 54% 29.97 in 10.0 mi SW 6.9 mph - N/A   Scattered Clouds
6:56 PM 63.0 °F - 46.9 °F 56% 29.96 in 10.0 mi SW 6.9 mph - N/A   Clear
7:56 PM 57.9 °F - 46.9 °F 67% 29.95 in 10.0 mi WSW 5.8 mph - N/A   Clear
8:56 PM 57.0 °F - 46.0 °F 67% 29.93 in 10.0 mi WSW 6.9 mph - N/A   Mostly Cloudy
9:56 PM 54.0 °F - 45.0 °F 72% 29.93 in 10.0 mi SW 13.8 mph - 0.00 in Rain Light Rain
10:56 PM 52.0 °F - 46.9 °F 83% 29.90 in 10.0 mi SSE 6.9 mph - 0.00 in   Overcast
11:56 PM 52.0 °F - 46.9 °F 83% 29.87 in 7.0 mi South 13.8 mph - 0.02 in Rain Rain